User: anonymous   Login
Location: Novo Ouro Preto
(19.8840°S, 43.9844°W)
Time: 12:53:11
(UTC+00:00)
Language:

Cosmos 1844 Rocket - Orbit

View from above orbital plane
View from above orbital plane
View from above satellite
View from above satellite

Ground track
Ground track

The orbit data is extracted from the following two-line orbital elements,

1 17974U 87041B   21135.17356598 -.00000166  00000-0 -58468-4 0  9994
2 17974  71.0045 141.1282 0013551   3.4167  65.8473 14.17274311758770
Epoch (UTC): 15 May 2021 04:09:56
Eccentricity: 0.0013551
inclination: 71.0045°
perigee height: 825 km
apogee height: 844 km
right ascension of ascending node: 141.1282°
argument of perigee: 3.4167°
revolutions per day: 14.17274311
mean anomaly at epoch: 65.8473°
orbit number at epoch: 75877

The dashed part of the orbit path shows where the satellite is in the earth's shadow,  

DLR